Terminal Aerodrome Forecast
Issued by NWS

Home | Current Version | Previous Version | Text Only | Print | Product List | Glossary On
Versions: 1 2 3 4 5 6 7 8 9 10 11 12 13 14 15 16 17 18 19 20 21 22 23 24 25 26 27 28 29 30 31 32 33 34 35 36 37 38 39 40
000
FTUS45 KBOU 290520
TAFBJC
TAF
KBJC 290520Z 2906/3006 02006KT 4SM -DZ BKN006 OVC011
      TEMPO 2907/2908 2SM -SN BR OVC004
     FM290800 09009KT 1SM -SN BR OVC004
     FM291200 07010KT 3/4SM -SN BR OVC003
     FM291800 04010KT 3/4SM -SNRA BR OVC005
     FM292200 02011KT 1 1/2SM -SN BR OVC009
     FM300100 34010KT 1SM -SN BR BKN005 OVC010
     FM300500 34010KT 3/4SM -SN BR BKN004 OVC008=

USA.gov is the U.S. government's official web portal to all federal, state and local government web resources and services.